FW8355 Weather Reports


Display with metric or nautical units.
time (UTC)temp
F
wind
direction
speed
MPH
gust
MPH
rain 1hr
in
rain 24hr
in
rain mn
in
humidity
%
barometer
mb
20260906214517 75 338 1.0 2.0 0.00 0.00 0.00 81 1018.8
20260906213557 74 0.0 2.0 0.00 0.00 0.00 84 1018.7
20260906212517 75 0.0 1.0 0.00 0.00 0.00 86 1018.7
20260906211517 75 0.0 1.0 0.00 0.00 0.00 85 1018.7
20260906210517 76 0.0 2.0 0.00 0.00 0.00 85 1018.6
20260906205557 76 0.0 2.0 0.00 0.00 0.00 86 1018.7
20260906204517 75 0.0 2.0 0.00 0.00 0.00 88 1018.8
20260906203517 75 293 1.0 2.0 0.00 0.00 0.00 88 1018.8
20260906202557 76 0.0 1.0 0.00 0.00 0.00 88 1018.9
20260906201517 76 0.0 1.0 0.00 0.00 0.00 87 1018.9
20260906200517 76 0.0 0.0 0.00 0.00 0.00 85 1018.8
20260906195517 77 0.0 1.0 0.00 0.00 0.00 85 1019.0
20260906194517 77 0.0 1.0 0.00 0.00 0.00 84 1019.0
20260906193517 77 0.0 1.0 0.00 0.00 0.00 84 1018.9
20260906192517 78 0.0 2.0 0.00 0.00 0.00 84 1018.9
20260906191517 78 0.0 3.0 0.00 0.00 0.00 85 1018.9
20260906190517 78 0.0 2.0 0.00 0.00 0.00 85 1019.0
20260906185517 78 0.0 1.0 0.00 0.00 0.00 85 1018.8
20260906184517 78 23 2.0 3.0 0.00 0.00 0.00 85 1018.8
20260906183517 79 0.0 0.0 0.00 0.00 0.00 84 1018.5
20260906182517 79 0.0 0.0 0.00 0.00 0.00 84 1018.6
20260906181516 80 0.0 0.0 0.00 0.00 0.00 82 1018.5
20260906180516 80 0.0 0.0 0.00 0.00 0.00 82 1018.4
20260906175516 80 0.0 1.0 0.00 0.00 0.00 82 1018.2
20260906174516 80 0.0 1.0 0.00 0.00 0.00 81 1018.1
20260906173637 81 203 1.0 3.0 0.00 0.00 0.00 81 1018.0
20260906172517 81 203 2.0 4.0 0.00 0.00 0.00 80 1018.0
20260906171517 81 203 3.0 6.0 0.00 0.00 0.00 80 1017.9
20260906170517 82 203 3.0 8.0 0.00 0.00 0.00 78 1017.7
20260906165516 83 203 4.0 11.0 0.00 0.00 0.00 77 1017.5
20260906164516 84 203 5.0 9.0 0.00 0.00 0.00 76 1017.4
20260906163516 85 225 4.0 9.0 0.00 0.00 0.00 74 1017.4
20260906162516 85 203 5.0 9.0 0.00 0.00 0.00 72 1017.3
20260906161517 85 203 5.0 11.0 0.00 0.00 0.00 73 1017.3
20260906160516 85 203 5.0 10.0 0.00 0.00 0.00 72 1017.4
20260906155516 86 203 5.0 10.0 0.00 0.00 0.00 71 1017.4
20260906154516 85 203 7.0 12.0 0.00 0.00 0.00 69 1017.4
20260906153536 86 203 6.0 13.0 0.00 0.00 0.00 69 1017.4
20260906152516 86 203 7.0 14.0 0.00 0.00 0.00 67 1017.3
20260906151516 86 203 8.0 13.0 0.00 0.00 0.00 67 1017.3
20260906150516 87 203 6.0 11.0 0.00 0.00 0.00 67 1017.2
20260906145516 87 203 7.0 15.0 0.00 0.00 0.00 65 1017.2
20260906144537 87 203 6.0 14.0 0.00 0.00 0.00 66 1017.2
20260906143517 87 203 8.0 17.0 0.00 0.00 0.00 65 1017.3
20260906142516 88 203 7.0 16.0 0.00 0.00 0.00 63 1017.4
20260906141516 88 203 8.0 13.0 0.00 0.00 0.00 60 1017.4
20260906140516 88 203 7.0 13.0 0.00 0.00 0.00 60 1017.4
20260906135516 88 203 9.0 16.0 0.00 0.00 0.00 58 1017.5
20260906134516 88 203 6.0 13.0 0.00 0.00 0.00 56 1017.5
20260906133516 88 203 6.0 11.0 0.00 0.00 0.00 57 1017.4
20260906132518 88 203 6.0 13.0 0.00 0.00 0.00 56 1017.5
20260906131516 88 203 7.0 13.0 0.00 0.00 0.00 58 1017.6
20260906130516 88 203 8.0 14.0 0.00 0.00 0.00 59 1017.7
20260906125516 88 203 7.0 16.0 0.00 0.00 0.00 60 1017.7
20260906124516 88 203 6.0 13.0 0.00 0.00 0.00 59 1017.8
20260906123536 88 225 8.0 13.0 0.00 0.00 0.00 58 1017.9
20260906122516 89 203 6.0 10.0 0.00 0.00 0.00 56 1017.9
20260906121516 89 203 5.0 11.0 0.00 0.00 0.00 52 1017.9
20260906120516 89 203 6.0 13.0 0.00 0.00 0.00 54 1018.0
20260906115536 88 203 7.0 17.0 0.00 0.00 0.00 56 1017.9
20260906114516 88 203 7.0 16.0 0.00 0.00 0.00 55 1018.0
20260906113516 89 203 5.0 10.0 0.00 0.00 0.00 54 1018.1
20260906112536 89 203 5.0 11.0 0.00 0.00 0.00 52 1018.1
20260906111516 89 203 6.0 10.0 0.00 0.00 0.00 54 1018.1
20260906110516 89 203 5.0 14.0 0.00 0.00 0.00 54 1018.0
20260906105556 89 225 6.0 11.0 0.00 0.00 0.00 53 1018.1
20260906104516 89 203 4.0 14.0 0.00 0.00 0.00 54 1018.2
20260906103516 89 203 3.0 9.0 0.00 0.00 0.00 53 1018.1
20260906102516 89 203 4.0 9.0 0.00 0.00 0.00 53 1018.2
20260906101516 89 203 4.0 10.0 0.00 0.00 0.00 53 1018.2
20260906100516 88 203 5.0 12.0 0.00 0.00 0.00 52 1018.2
20260906095516 88 203 4.0 12.0 0.00 0.00 0.00 51 1018.2
20260906094516 88 203 3.0 5.0 0.00 0.00 0.00 51 1018.2
20260906093515 87 203 5.0 10.0 0.00 0.00 0.00 50 1018.3
20260906092536 87 225 2.0 6.0 0.00 0.00 0.00 51 1018.4
20260906091556 87 203 3.0 8.0 0.00 0.00 0.00 50 1018.4
20260906090515 86 225 3.0 6.0 0.00 0.00 0.00 49 1018.5
20260906085536 86 203 1.0 5.0 0.00 0.00 0.00 55 1018.5
20260906084536 85 203 2.0 6.0 0.00 0.00 0.00 54 1018.5
20260906083515 85 180 2.0 4.0 0.00 0.00 0.00 55 1018.5
20260906082517 84 203 2.0 5.0 0.00 0.00 0.00 55 1018.5
20260906081516 84 113 2.0 5.0 0.00 0.00 0.00 54 1018.6
20260906080516 84 203 2.0 6.0 0.00 0.00 0.00 55 1018.5
20260906075536 82 113 3.0 5.0 0.00 0.00 0.00 58 1018.3
20260906074515 81 113 3.0 5.0 0.00 0.00 0.00 60 1018.2
20260906073535 81 113 2.0 4.0 0.00 0.00 0.00 62 1018.1
20260906072515 79 90 2.0 5.0 0.00 0.00 0.00 62 1018.0
20260906071518 79 0.0 0.0 0.00 0.00 0.00 65 1018.0
20260906070537 79 0.0 0.0 0.00 0.00 0.00 66 1017.9
20260906065517 79 0.0 0.0 0.00 0.00 0.00 67 1017.9
20260906064517 79 0.0 0.0 0.00 0.00 0.00 66 1017.8
20260906063517 78 0.0 0.0 0.00 0.00 0.00 68 1017.8
20260906062557 77 0.0 0.0 0.00 0.00 0.00 70 1017.8
20260906061517 74 0.0 0.0 0.00 0.00 0.00 74 1017.8
20260906060517 73 0.0 0.0 0.00 0.00 0.00 74 1017.8
20260906055517 72 0.0 0.0 0.00 0.00 0.00 77 1017.8
20260906054517 72 0.0 0.0 0.00 0.00 0.00 78 1017.7
20260906053517 71 0.0 0.0 0.00 0.00 0.00 77 1017.6
20260906052517 71 0.0 0.0 0.00 0.00 0.00 72 1017.6
20260906051517 70 0.0 0.0 0.00 0.00 0.00 68 1017.6
20260906050517 69 0.0 0.0 0.00 0.00 0.00 69 1017.5
20260906045517 68 0.0 0.0 0.00 0.00 0.00 67 1017.5
20260906044517 68 0.0 0.0 0.00 0.00 0.00 68 1017.5
20260906043517 68 0.0 0.0 0.00 0.00 0.00 67 1017.5
20260906042537 68 0.0 0.0 0.00 0.00 0.00 70 1017.4
20260906041517 68 0.0 0.0 0.00 0.00 0.00 73 1017.5
20260906040517 68 0.0 0.0 0.00 0.00 0.00 70 1017.3
20260906035537 69 0.0 0.0 0.00 0.00 0.00 72 1017.4
20260906034517 68 0.0 0.0 0.00 0.00 0.00 72 1017.3
20260906033517 68 0.0 0.0 0.00 0.00 0.00 69 1017.3
20260906032517 68 0.0 0.0 0.00 0.00 0.00 68 1017.3
20260906031517 69 0.0 0.0 0.00 0.00 0.00 67 1017.3
20260906030517 69 0.0 0.0 0.00 0.00 0.00 68 1017.3
20260906025517 69 0.0 0.0 0.00 0.00 0.00 68 1017.3
20260906024517 68 0.0 0.0 0.00 0.00 0.00 71 1017.3
20260906023517 68 0.0 0.0 0.00 0.00 0.00 73 1017.5
20260906022517 68 0.0 0.0 0.00 0.00 0.00 73 1017.5
20260906021517 69 0.0 0.0 0.00 0.00 0.00 72 1017.5
20260906020537 70 0.0 0.0 0.00 0.00 0.00 79 1017.5
20260906015517 70 0.0 0.0 0.00 0.00 0.00 76 1017.5
20260906014517 70 0.0 0.0 0.00 0.00 0.00 67 1017.6
20260906013517 70 0.0 0.0 0.00 0.00 0.00 67 1017.4
20260906012517 69 0.0 0.0 0.00 0.00 0.00 69 1017.4
20260906011517 70 0.0 0.0 0.00 0.00 0.00 73 1017.4
20260906010517 69 0.0 0.0 0.00 0.00 0.00 71 1017.4
20260906005517 70 0.0 0.0 0.00 0.00 0.00 72 1017.3
20260906004517 70 0.0 0.0 0.00 0.00 0.00 74 1017.4
20260906003517 70 0.0 0.0 0.00 0.00 0.00 74 1017.2
20260906002517 71 0.0 0.0 0.00 0.00 0.00 77 1017.3
20260906001517 71 0.0 0.0 0.00 0.00 0.00 78 1017.3
20260906000516 72 0.0 0.0 0.00 0.00 0.00 77 1017.3
20260905235516 72 0.0 0.0 0.00 0.00 0.00 77 1017.4
20260905234517 72 0.0 0.0 0.00 0.00 0.00 75 1017.5
20260905233537 72 0.0 0.0 0.00 0.00 0.00 75 1017.6
20260905232517 73 0.0 1.0 0.00 0.00 0.00 76 1017.6
20260905231516 73 0.0 2.0 0.00 0.00 0.00 77 1017.5
20260905230516 73 0.0 0.0 0.00 0.00 0.00 77 1017.6
20260905225518 73 0.0 0.0 0.00 0.00 0.00 78 1017.5
20260905224516 74 0.0 0.0 0.00 0.00 0.00 78 1017.5
20260905223518 74 0.0 0.0 0.00 0.00 0.00 79 1017.8
20260905222516 74 0.0 0.0 0.00 0.00 0.00 78 1017.6
20260905221516 74 0.0 0.0 0.00 0.00 0.00 79 1017.5
20260905220516 73 0.0 0.0 0.00 0.00 0.00 79 1017.5
20260905215517 73 0.0 0.0 0.00 0.00 0.00 79 1017.4